FW6053 Weather Reports


Display with metric or nautical units.
time (UTC)temp
F
wind
direction
speed
MPH
gust
MPH
rain 1hr
in
rain 24hr
in
rain mn
in
humidity
%
barometer
mb
20260506083053 45 203 2.0 6.0 0.00 0.00 0.00 70 1018.0
20260506081603 46 0 2.0 5.0 0.00 0.00 0.00 72 1018.0
20260506073054 42 0 0.0 0.0 0.00 0.00 0.00 82 1018.1
20260506071556 41 0 0.0 2.0 0.00 0.00 0.00 84 1018.3
20260506061556 36 0 0.0 0.0 0.00 0.00 0.00 89 1018.2
20260506050113 34 0 0.0 0.0 0.00 0.00 0.00 89 1018.4
20260506044554 34 0 0.0 2.0 0.00 0.00 0.00 89 1018.2
20260506043054 33 0 0.0 2.0 0.00 0.00 0.00 88 1018.2
20260506041601 33 0 0.0 0.0 0.00 0.00 0.00 88 1018.2
20260506040057 33 0 0.0 0.0 0.00 0.00 0.00 88 1018.3
20260506034555 33 0 0.0 0.0 0.00 0.00 0.00 87 1018.2
20260506033053 34 0 0.0 0.0 0.00 0.00 0.00 87 1018.1
20260506031552 34 0 0.0 0.0 0.00 0.00 0.00 87 1018.2
20260506030059 34 0 0.0 0.0 0.00 0.00 0.00 87 1018.4
20260506024606 34 0 0.0 0.0 0.00 0.00 0.00 87 1018.4
20260506023111 34 0 0.0 0.0 0.00 0.00 0.00 86 1018.3
20260506021552 34 0 0.0 0.0 0.00 0.00 0.00 85 1018.5
20260506020056 34 0 0.0 0.0 0.00 0.00 0.00 85 1018.5
20260506014559 35 0 0.0 0.0 0.00 0.00 0.00 84 1018.6
20260506013056 35 0 0.0 2.0 0.00 0.00 0.00 84 1018.6
20260506011552 35 0 0.0 2.0 0.00 0.00 0.00 83 1018.7
20260506010055 35 0 0.0 0.0 0.00 0.00 0.00 83 1018.7
20260506004558 35 0 0.0 1.0 0.00 0.00 0.00 83 1018.8
20260506003059 35 0 0.0 1.0 0.00 0.00 0.00 82 1018.9
20260506001558 36 0 0.0 2.0 0.00 0.00 0.00 82 1018.9
20260505234558 37 0 0.0 0.0 0.00 0.00 0.00 81 1019.0
20260505233056 38 0 0.0 0.0 0.00 0.00 0.00 80 1019.1
20260505231554 38 0 0.0 0.0 0.00 0.00 0.00 78 1019.2
20260505230120 39 0 0.0 0.0 0.00 0.00 0.00 78 1019.2
20260505224552 39 0 0.0 1.0 0.00 0.00 0.00 77 1019.1
20260505223054 40 86 0.0 2.0 0.00 0.00 0.00 77 1019.2
20260505221557 40 0 0.0 0.0 0.00 0.00 0.00 77 1019.2
20260505220056 41 0 0.0 1.0 0.00 0.00 0.00 77 1019.3
20260505214559 41 0 0.0 1.0 0.00 0.00 0.00 76 1019.3
20260505213052 41 0 0.0 1.0 0.00 0.00 0.00 76 1019.4
20260505211603 42 0 0.0 1.0 0.00 0.00 0.00 76 1019.4
20260505204603 42 0 0.0 1.0 0.00 0.00 0.00 74 1019.4
20260505203102 42 86 0.0 2.0 0.00 0.00 0.00 74 1019.3
20260505201555 43 86 1.0 3.0 0.00 0.00 0.00 73 1019.3
20260505200107 43 0 1.0 6.0 0.00 0.00 0.00 72 1019.3
20260505194551 43 86 1.0 6.0 0.00 0.00 0.00 72 1019.3
20260505193102 43 94 0.0 4.0 0.00 0.00 0.00 72 1019.1
20260505191557 44 0 0.0 7.0 0.00 0.00 0.00 71 1018.9
20260505190054 44 0 0.0 3.0 0.00 0.00 0.00 71 1018.9
20260505184550 44 84 1.0 4.0 0.00 0.00 0.00 71 1018.9
20260505183053 44 98 1.0 8.0 0.00 0.00 0.00 70 1018.7
20260505181559 44 82 2.0 5.0 0.00 0.00 0.00 70 1018.8
20260505180058 44 82 3.0 9.0 0.00 0.00 0.00 71 1018.8
20260505174602 44 94 1.0 7.0 0.00 0.00 0.00 70 1018.7
20260505173056 44 95 4.0 9.0 0.00 0.00 0.00 70 1018.6
20260505171556 44 76 3.0 7.0 0.00 0.00 0.00 70 1018.6
20260505170055 45 80 0.0 7.0 0.00 0.00 0.00 71 1018.5
20260505164602 45 78 5.0 10.0 0.00 0.00 0.00 70 1018.4
20260505163103 46 97 3.0 9.0 0.00 0.00 0.00 70 1018.4
20260505161609 46 90 3.0 9.0 0.00 0.00 0.00 69 1018.1
20260505153110 47 165 1.0 9.0 0.00 0.00 0.00 68 1018.1
20260505151559 47 93 2.0 11.0 0.00 0.00 0.00 70 1018.0
20260505150108 48 89 1.0 10.0 0.00 0.00 0.00 67 1017.9
20260505130109 50 99 4.0 13.0 0.00 0.00 0.00 62 1017.5
20260505124554 52 350 4.0 13.0 0.00 0.00 0.00 59 1017.3
20260505123057 51 360 7.0 14.0 0.00 0.00 0.00 63 1017.5
20260505121559 52 360 7.0 16.0 0.00 0.00 0.00 60 1017.4
20260505120104 50 76 8.0 16.0 0.00 0.00 0.00 60 1017.3
20260505114552 52 21 9.0 15.0 0.00 0.00 0.00 60 1017.1
20260505113116 53 22 5.0 12.0 0.00 0.00 0.00 56 1017.1
20260505111559 51 37 6.0 14.0 0.00 0.00 0.00 60 1017.1
20260505110123 53 36 9.0 13.0 0.00 0.00 0.00 62 1017.2
20260505101601 49 15 5.0 17.0 0.00 0.00 0.00 68 1017.1
20260505100100 50 38 8.0 16.0 0.00 0.00 0.00 68 1017.1
20260505094618 49 40 5.0 14.0 0.00 0.00 0.00 69 1017.0
20260505093057 49 10 6.0 14.0 0.00 0.00 0.00 70 1016.8
20260505091605 48 5 9.0 16.0 0.00 0.00 0.00 71 1016.7
20260505090058 48 9 8.0 21.0 0.00 0.00 0.00 70 1016.5
20260505084558 49 360 5.0 10.0 0.00 0.00 0.00 65 1016.2